Terminal Aerodrome Forecast
Issued by NWS

Home | Current Version | Previous Version | Text Only | Print | Product List | Glossary On
Versions: 1 2 3 4 5 6 7 8 9 10 11 12 13 14 15 16 17 18 19 20 21 22 23 24
000
FTUS45 KGJT 170529
TAFTEX
TAF
KTEX 170529Z 1706/1806 13003KT P6SM SCT110 BKN180
     FM171900 27007KT P6SM VCTS FEW080CB SCT140
      TEMPO 1720/1722 VRB10G20KT -TSRA BKN080CB
     FM180200 14005KT P6SM FEW100 BKN150=

USA.gov is the U.S. government's official web portal to all federal, state and local government web resources and services.